User: anonymous   Login
Location: Blandford
(50.8667°N, 2.1667°W)
Time: 18:52:34
(UTC+00:00)
Language:

ARGOS - Orbit

View from above orbital plane
View from above orbital plane
View from above satellite
View from above satellite

Ground track
Ground track

The orbit data is extracted from the following two-line orbital elements,

1 25634U 99008A   20184.83175840 -.00000022 +00000-0 +93818-5 0  9996
2 25634 098.4600 222.9205 0009304 229.0876 130.9496 14.19374780105665
Epoch (UTC): 02 July 2020 19:57:43
Eccentricity: 0.0009304
inclination: 98.4600°
perigee height: 821 km
apogee height: 834 km
right ascension of ascending node: 222.9205°
argument of perigee: 229.0876°
revolutions per day: 14.19374780
mean anomaly at epoch: 130.9496°
orbit number at epoch: 10566

The dashed part of the orbit path shows where the satellite is in the earth's shadow,  

DLR